Date String (YYYY-MM-DD hh:mm:ss) UTC,Instrument flags,Ambient pressure (hPa),Sample flow (lpm),Bypass flow (lpm),Sample temperature (°C),Ambient temperature (°C),ASC tube jacket temperature (°C),LED temperature (°C),Box temperature (°C),Sample RH (%),Span deviation,Mass concentration (μg/m³),Mass concentration (μg/m³),Mass concentration (μg/m³)
DateTimeUTC,F1_M11,P_M11,Q1_M11,Q2_M11,T1_M11,T2_M11,T3_M11,T4_M11,T5_M11,U1_M11,ZSPAN_M11,X2_M11,X0_M11,X1_M11
2023-05-23 23:00:00,,0829.8,5.01,0.00,29.3,25.0,00.0,37.5,30.7,22.3,0003.6,0021.52,0036.57,0020.11
2023-05-23 23:01:00,,0829.8,5.01,0.00,29.3,25.1,00.0,37.5,30.7,22.3,0003.7,0021.59,0037.62,0020.18
2023-05-23 23:02:00,,0829.8,4.99,0.00,29.2,25.4,00.0,37.5,30.6,22.6,0003.6,0021.63,0038.06,0020.24
2023-05-23 23:03:00,,0829.8,4.99,0.00,29.2,25.8,00.0,37.5,30.7,23.3,0003.5,0021.64,0037.93,0020.29
2023-05-23 23:04:00,,0829.8,5.00,0.00,29.2,26.2,00.0,37.5,30.7,25.0,0003.5,0021.61,0037.07,0020.33
2023-05-23 23:05:00,,0829.7,5.01,0.00,29.2,26.5,00.0,37.5,30.8,23.9,0003.6,0021.70,0038.31,0020.42
2023-05-23 23:06:00,,0829.7,5.01,0.00,29.2,26.9,00.0,37.5,30.8,24.0,0003.6,0021.85,0038.13,0020.52
2023-05-23 23:07:00,,0829.7,4.99,0.00,29.2,27.2,00.0,37.5,30.9,23.4,0003.4,0022.01,0038.76,0020.67
2023-05-23 23:08:00,,0829.7,4.99,0.00,29.2,27.4,00.0,37.5,31.0,23.8,0003.3,0022.17,0038.53,0020.83
2023-05-23 23:09:00,,0829.7,4.99,0.00,29.3,27.6,00.0,37.5,31.0,24.1,0003.3,0022.31,0038.28,0020.95
2023-05-23 23:10:00,,0829.7,5.00,0.00,29.3,27.8,00.0,37.6,31.1,23.8,0003.4,0022.47,0039.21,0021.09
2023-05-23 23:11:00,,0829.7,5.01,0.00,29.3,27.9,00.0,37.6,31.1,23.4,0003.4,0022.63,0039.84,0021.23
2023-05-23 23:12:00,,0829.7,5.00,0.00,29.4,28.1,00.0,37.6,31.2,23.7,0003.4,0022.73,0039.68,0021.33
2023-05-23 23:13:00,,0829.7,5.01,0.00,29.4,28.2,00.0,37.6,31.2,24.0,0003.4,0022.84,0039.90,0021.46
2023-05-23 23:14:00,,0829.7,4.98,0.00,29.4,27.1,00.0,37.6,31.1,24.3,0003.4,0022.93,0040.05,0021.54
2023-05-23 23:15:00,,0829.7,5.00,0.00,29.4,25.9,00.0,37.5,30.9,23.2,0003.5,0023.08,0041.12,0021.64
2023-05-23 23:16:00,,0829.7,5.02,0.00,29.3,25.9,00.0,37.5,30.8,23.1,0003.3,0023.16,0040.03,0021.73
2023-05-23 23:17:00,,0829.7,5.00,0.00,29.3,26.1,00.0,37.5,30.8,24.1,0003.4,0023.18,0040.52,0021.76
2023-05-23 23:18:00,,0829.7,5.00,0.00,29.3,26.4,00.0,37.5,30.8,24.6,0003.5,0023.21,0039.99,0021.77
2023-05-23 23:19:00,,0829.7,5.00,0.00,29.3,26.7,00.0,37.5,30.9,24.9,0003.5,0023.24,0040.07,0021.78
2023-05-23 23:20:00,,0829.7,5.00,0.00,29.3,27.0,00.0,37.5,30.9,26.0,0003.5,0023.28,0040.60,0021.81
2023-05-23 23:21:00,,0829.7,5.00,0.00,29.3,27.3,00.0,37.6,31.0,26.2,0003.5,0023.33,0039.99,0021.90
2023-05-23 23:22:00,,0829.7,5.01,0.00,29.3,27.5,00.0,37.6,31.0,27.0,0003.4,0023.39,0039.41,0021.95
2023-05-23 23:23:00,,0829.7,5.00,0.00,29.3,27.7,00.0,37.6,31.1,28.0,0003.4,0023.40,0039.06,0021.97
2023-05-23 23:24:00,,0829.7,5.00,0.00,29.4,27.9,00.0,37.6,31.2,25.0,0003.5,0023.44,0038.59,0021.98
2023-05-23 23:25:00,,0829.7,5.00,0.00,29.4,28.0,00.0,37.6,31.2,24.4,0003.5,0023.50,0037.92,0022.03
2023-05-23 23:26:00,,0829.7,5.01,0.00,29.4,28.2,00.0,37.7,31.2,24.2,0003.4,0023.53,0037.43,0022.07
2023-05-23 23:27:00,,0829.7,4.98,0.00,29.5,27.7,00.0,37.6,31.2,24.7,0003.5,0023.60,0038.09,0022.11
2023-05-23 23:28:00,,0829.7,5.00,0.00,29.4,26.1,00.0,37.6,31.0,24.5,0003.5,0023.59,0038.44,0022.12
2023-05-23 23:29:00,,0829.7,5.00,0.00,29.4,25.8,00.0,37.5,30.9,24.9,0003.4,0023.63,0038.30,0022.21
2023-05-23 23:30:00,,0829.6,5.01,0.00,29.3,26.0,00.0,37.5,30.8,25.2,0003.5,0023.63,0037.44,0022.25
2023-05-23 23:31:00,,0829.7,5.01,0.00,29.3,26.3,00.0,37.5,30.9,25.8,0003.4,0023.67,0037.05,0022.30
2023-05-23 23:32:00,,0829.7,4.99,0.00,29.3,26.6,00.0,37.6,30.9,25.7,0003.5,0023.65,0036.70,0022.28
2023-05-23 23:33:00,,0829.6,4.99,0.00,29.3,27.0,00.0,37.6,30.9,25.8,0003.5,0023.62,0036.90,0022.26
2023-05-23 23:34:00,,0829.7,5.00,0.00,29.3,27.2,00.0,37.6,31.0,25.8,0003.5,0023.68,0037.33,0022.30
2023-05-23 23:35:00,,0829.7,5.00,0.00,29.3,27.5,00.0,37.6,31.1,24.8,0003.4,0023.67,0036.73,0022.31
2023-05-23 23:36:00,,0829.7,5.01,0.00,29.4,27.7,00.0,37.6,31.1,24.8,0003.4,0023.74,0037.21,0022.35
2023-05-23 23:37:00,,0829.7,5.01,0.00,29.4,27.9,00.0,37.6,31.2,24.3,0003.5,0023.87,0036.77,0022.43
2023-05-23 23:38:00,,0829.7,4.99,0.00,29.4,28.0,00.0,37.7,31.2,24.7,0003.6,0023.89,0036.23,0022.48
2023-05-23 23:39:00,,0829.7,4.99,0.00,29.5,27.9,00.0,37.7,31.2,24.8,0003.5,0023.90,0035.53,0022.54
2023-05-23 23:40:00,,0829.7,4.99,0.00,29.5,26.5,00.0,37.6,31.0,25.0,0003.4,0023.85,0036.11,0022.53
2023-05-23 23:41:00,,0829.7,5.02,0.00,29.4,25.8,00.0,37.5,30.9,25.3,0003.4,0023.87,0036.18,0022.55
2023-05-23 23:42:00,,0829.7,5.00,0.00,29.3,25.9,00.0,37.5,30.8,24.8,0003.4,0023.92,0036.43,0022.61
2023-05-23 23:43:00,,0829.7,5.00,0.00,29.3,26.2,00.0,37.5,30.8,24.7,0003.5,0023.96,0036.96,0022.66
2023-05-23 23:44:00,,0829.6,5.01,0.00,29.3,26.5,00.0,37.6,30.9,25.1,0003.5,0023.99,0037.42,0022.73
2023-05-23 23:45:00,,0829.7,5.00,0.00,29.3,26.9,00.0,37.6,30.9,25.8,0003.5,0024.02,0037.63,0022.74
2023-05-23 23:46:00,,0829.7,4.99,0.00,29.3,27.1,00.0,37.6,31.0,24.9,0003.6,0024.06,0037.84,0022.79
2023-05-23 23:47:00,,0829.7,4.99,0.00,29.3,27.4,00.0,37.6,31.0,24.6,0003.6,0024.01,0037.91,0022.77
2023-05-23 23:48:00,,0829.6,5.00,0.00,29.4,27.6,00.0,37.6,31.1,24.7,0003.6,0023.88,0038.32,0022.70
2023-05-23 23:49:00,,0829.7,5.01,0.00,29.4,27.8,00.0,37.6,31.1,24.2,0003.6,0023.81,0038.80,0022.67
2023-05-23 23:50:00,,0829.7,5.00,0.00,29.4,28.0,00.0,37.7,31.2,24.0,0003.6,0023.80,0039.32,0022.65
2023-05-23 23:51:00,,0829.7,5.01,0.00,29.5,28.1,00.0,37.7,31.2,24.5,0003.7,0023.85,0039.70,0022.63
2023-05-23 23:52:00,,0829.7,5.00,0.00,29.5,27.7,00.0,37.7,31.2,24.4,0003.8,0023.87,0040.72,0022.60
2023-05-23 23:53:00,,0829.7,4.99,0.00,29.5,26.3,00.0,37.6,31.0,24.2,0003.9,0023.82,0041.06,0022.54
2023-05-23 23:54:00,,0829.7,5.01,0.00,29.4,25.9,00.0,37.5,31.0,24.3,0003.8,0023.77,0041.12,0022.48
2023-05-23 23:55:00,,0829.7,5.02,0.00,29.4,26.0,00.0,37.5,30.9,23.6,0003.8,0023.77,0040.72,0022.38
2023-05-23 23:56:00,,0829.7,5.00,0.00,29.3,26.3,00.0,37.6,30.9,24.3,0003.9,0023.70,0040.07,0022.30
2023-05-23 23:57:00,,0829.7,4.99,0.00,29.3,26.6,00.0,37.6,30.9,24.2,0003.9,0023.62,0039.69,0022.24
2023-05-23 23:58:00,,0829.7,4.99,0.00,29.3,26.9,00.0,37.6,31.0,24.3,0003.8,0023.58,0039.38,0022.19
2023-05-23 23:59:00,,0829.7,5.01,0.00,29.3,27.2,00.0,37.6,31.0,24.5,0003.8,0023.56,0038.59,0022.13
